CW4120 Weather Reports


time (UTC)temp
C
wind
direction
speed
KPH
gust
KPH
rain 1hr
cm
rain 24hr
cm
rain mn
cm
humidity
%
barometer
mb
20260507151533 12 56 1.6 4.8 0.00 0.18 0.18 68 1012.5
20260507151033 12 311 0.0 3.2 0.00 0.20 0.18 66 1012.6
20260507150533 12 310 1.6 4.8 0.00 0.20 0.18 66 1012.5
20260507150034 12 316 1.6 4.8 0.00 0.23 0.18 65 1012.6
20260507145533 12 62 1.6 4.8 0.00 0.25 0.18 70 1012.7
20260507145034 12 51 0.0 3.2 0.00 0.28 0.18 68 1012.8
20260507144534 12 42 0.0 4.8 0.00 0.30 0.18 70 1012.8
20260507144034 12 38 0.0 4.8 0.00 0.30 0.18 71 1012.9
20260507143533 12 76 0.0 3.2 0.00 0.33 0.18 70 1013.0
20260507142534 12 200 0.0 3.2 0.00 0.33 0.18 70 1013.1
20260507142033 12 200 0.0 3.2 0.00 0.33 0.18 69 1013.1
20260507141533 12 57 1.6 3.2 0.00 0.36 0.18 69 1013.0
20260507141033 12 113 0.0 3.2 0.00 0.36 0.18 67 1013.1
20260507140533 12 157 0.0 3.2 0.00 0.36 0.18 71 1013.1
20260507140033 12 135 1.6 4.8 0.00 0.38 0.18 69 1013.1
20260507135533 12 169 1.6 4.8 0.00 0.41 0.18 70 1013.1
20260507135034 12 10 0.0 4.8 0.00 0.43 0.18 71 1013.1
20260507134534 12 268 1.6 4.8 0.00 0.46 0.18 72 1013.2
20260507134033 12 14 1.6 4.8 0.00 0.51 0.18 75 1013.2
20260507133534 12 47 0.0 3.2 0.00 0.53 0.18 75 1013.3
20260507131533 12 292 0.0 1.6 0.00 0.66 0.18 79 1013.1
20260507131033 12 308 0.0 4.8 0.00 0.69 0.18 77 1013.0
20260507130533 12 293 1.6 4.8 0.00 0.74 0.18 77 1013.1
20260507130033 12 307 1.6 3.2 0.00 0.76 0.18 78 1013.0
20260507125034 12 114 0.0 3.2 0.00 0.76 0.18 80 1013.1
20260507124533 12 147 1.6 4.8 0.00 0.76 0.18 78 1013.1
20260507124033 12 0 1.6 4.8 0.00 0.76 0.18 78 1012.9
20260507123533 12 322 0.0 3.2 0.00 0.76 0.18 77 1012.9
20260507122533 12 332 1.6 4.8 0.00 0.79 0.18 75 1013.1
20260507122033 12 41 1.6 4.8 0.00 0.79 0.18 75 1013.1
20260507121533 12 336 0.0 9.7 0.00 0.79 0.18 75 1013.1
20260507121033 12 14 0.0 11.3 0.00 0.81 0.18 77 1013.1
20260507120534 12 75 1.6 11.3 0.00 0.81 0.18 76 1013.0
20260507120033 12 11 1.6 11.3 0.00 0.81 0.18 77 1012.9
20260507115533 12 292 1.6 4.8 0.00 0.81 0.18 78 1013.1
20260507115034 12 292 1.6 4.8 0.00 0.81 0.18 80 1013.0
20260507114533 12 254 0.0 3.2 0.00 0.81 0.18 80 1012.8
20260507114033 12 260 0.0 3.2 0.00 0.81 0.18 79 1012.7
20260507113533 12 248 0.0 3.2 0.00 0.81 0.18 80 1012.5
20260507113033 12 314 1.6 3.2 0.00 0.81 0.18 79 1012.5
20260507112034 12 345 0.0 4.8 0.00 0.81 0.18 80 1012.5
20260507111033 12 88 0.0 3.2 0.00 0.81 0.18 82 1012.5
20260507110533 12 242 0.0 3.2 0.00 0.81 0.18 82 1012.5
20260507105533 12 352 0.0 4.8 0.00 0.81 0.18 84 1012.4
20260507105033 12 125 0.0 1.6 0.00 0.81 0.18 84 1012.5
20260507104533 12 101 0.0 1.6 0.00 0.81 0.18 85 1012.3
20260507104033 12 39 0.0 1.6 0.00 0.81 0.18 85 1012.2
20260507103533 12 308 0.0 3.2 0.00 0.81 0.18 86 1012.4
20260507103033 12 310 0.0 4.8 0.00 0.81 0.18 84 1012.4
20260507102534 12 0 0.0 4.8 0.00 0.81 0.18 83 1012.3
20260507102033 12 305 0.0 3.2 0.00 0.81 0.18 85 1012.1
20260507101533 12 296 0.0 3.2 0.00 0.81 0.18 84 1012.1
20260507101033 12 54 0.0 3.2 0.00 0.81 0.18 84 1011.9
20260507100533 12 347 0.0 8.0 0.00 0.81 0.18 84 1011.9
20260507100033 12 357 1.6 8.0 0.00 0.81 0.18 85 1012.0
20260507095033 12 21 1.6 4.8 0.00 0.81 0.18 89 1011.7
20260507094533 12 25 1.6 4.8 0.00 0.81 0.18 88 1012.0
20260507093534 12 171 0.0 4.8 0.00 0.81 0.18 91 1012.0
20260507093033 12 171 0.0 4.8 0.00 0.81 0.18 91 1011.9
20260507092533 12 109 0.0 1.6 0.00 0.81 0.18 91 1011.8
20260507092033 12 109 0.0 1.6 0.00 0.81 0.18 91 1011.7
20260507091533 12 109 0.0 1.6 0.00 0.81 0.18 91 1011.4
20260507091033 12 80 0.0 3.2 0.00 0.81 0.18 91 1011.5
20260507090534 12 39 0.0 3.2 0.00 0.81 0.18 91 1011.6
20260507090033 12 46 0.0 1.6 0.00 0.81 0.18 91 1011.7
20260507085533 12 46 0.0 0.0 0.00 0.81 0.18 91 1011.6
20260507085033 12 46 0.0 0.0 0.00 0.81 0.18 92 1011.6
20260507084533 12 46 0.0 1.6 0.00 0.81 0.18 92 1011.6
20260507084033 12 46 0.0 1.6 0.00 0.81 0.18 92 1011.5
20260507083533 12 46 0.0 1.6 0.03 0.81 0.18 91 1011.3
20260507083032 12 46 0.0 3.2 0.03 0.81 0.18 91 1011.5
20260507082534 12 46 0.0 4.8 0.03 0.81 0.18 91 1011.7
20260507082033 12 46 1.6 4.8 0.03 0.81 0.18 92 1011.6
20260507081533 12 304 0.0 1.6 0.03 0.81 0.18 92 1011.4
20260507081033 12 304 0.0 3.2 0.03 0.81 0.18 91 1011.4
20260507080534 12 304 0.0 3.2 0.03 0.81 0.18 90 1011.2
20260507080033 12 304 0.0 4.8 0.03 0.81 0.18 90 1010.9
20260507075533 12 323 0.0 9.7 0.03 0.81 0.18 90 1011.0
20260507075033 12 47 1.6 9.7 0.03 0.81 0.18 91 1010.9
20260507074033 12 9 0.0 3.2 0.03 0.81 0.18 90 1011.1
20260507072033 12 325 0.0 3.2 0.00 0.79 0.15 92 1010.7
20260507070534 12 4 0.0 3.2 0.00 0.79 0.15 92 1010.8
20260507065034 12 5 1.6 3.2 0.00 0.79 0.15 93 1010.9
20260507064533 12 6 1.6 3.2 0.00 0.79 0.15 93 1010.9
20260507064033 12 34 0.0 1.6 0.00 0.79 0.15 93 1010.8
20260507063034 12 77 0.0 4.8 0.03 0.79 0.15 93 1010.7
20260507062533 12 256 0.0 4.8 0.03 0.79 0.15 93 1010.9
20260507062034 12 318 0.0 4.8 0.03 0.79 0.15 93 1011.0
20260507061533 12 298 1.6 4.8 0.03 0.79 0.15 93 1011.1
20260507061033 12 312 3.2 4.8 0.03 0.79 0.15 93 1010.9
20260507060533 12 7 0.0 4.8 0.03 0.79 0.15 93 1010.7
20260507060033 13 8 1.6 4.8 0.03 0.79 0.15 93 1010.8
20260507055534 13 289 1.6 4.8 0.03 0.79 0.15 93 1010.7
20260507055034 13 7 1.6 4.8 0.03 0.79 0.15 93 1010.7
20260507054533 13 249 1.6 4.8 0.05 0.79 0.15 93 1010.7
20260507054034 13 225 1.6 4.8 0.05 0.79 0.15 92 1010.8
20260507053534 13 156 0.0 4.8 0.08 0.79 0.15 93 1011.1
20260507052033 13 106 0.0 3.2 0.13 0.76 0.13 93 1010.8
20260507051534 13 117 1.6 3.2 0.13 0.76 0.13 92 1011.0
20260507051033 13 116 1.6 4.8 0.13 0.76 0.13 92 1010.5
20260507050534 14 86 3.2 4.8 0.13 0.76 0.13 92 1010.7
20260507050034 14 272 1.6 3.2 0.13 0.76 0.13 92 1010.9
20260507045534 14 332 1.6 3.2 0.13 0.76 0.13 91 1011.2
20260507045033 14 352 0.0 8.0 0.13 0.76 0.13 91 1011.1
20260507044533 14 352 0.0 8.0 0.10 0.74 0.10 90 1010.9
20260507044033 15 76 1.6 4.8 0.10 0.74 0.10 89 1010.8
20260507043534 15 198 1.6 4.8 0.08 0.71 0.08 88 1011.5
20260507043034 15 327 1.6 4.8 0.08 0.71 0.08 87 1011.1
20260507042534 15 89 0.0 3.2 0.03 0.66 0.03 86 1010.8
20260507042034 15 352 0.0 3.2 0.00 0.64 0.00 85 1011.3
20260507041034 16 254 0.0 3.2 0.00 0.64 0.00 83 1011.0
20260507040533 16 254 1.6 3.2 0.00 0.64 0.00 83 1010.9
20260507040033 16 242 0.0 4.8 0.00 0.64 0.00 83 1010.8
20260507035533 16 242 1.6 4.8 0.00 0.64 0.64 83 1010.8
20260507035034 16 339 1.6 12.9 0.00 0.64 0.64 82 1010.8
20260507034533 16 299 3.2 12.9 0.00 0.64 0.64 81 1010.8
20260507033534 16 316 3.2 8.0 0.00 0.64 0.64 79 1010.8
20260507033033 17 289 3.2 8.0 0.00 0.64 0.64 78 1010.8
20260507032533 17 355 3.2 4.8 0.00 0.64 0.64 78 1010.8
20260507032034 17 308 1.6 4.8 0.00 0.64 0.64 79 1010.8
20260507031533 17 323 1.6 4.8 0.00 0.64 0.64 78 1010.7
20260507031034 17 308 3.2 4.8 0.00 0.64 0.64 78 1010.5
20260507030533 17 228 1.6 4.8 0.00 0.64 0.64 80 1010.5
20260507030034 17 237 3.2 8.0 0.00 0.64 0.64 80 1010.1
20260507025533 17 326 1.6 12.9 0.00 0.64 0.64 81 1009.8
20260507025033 17 304 1.6 12.9 0.00 0.64 0.64 82 1009.9
20260507024534 18 295 3.2 12.9 0.00 0.64 0.64 82 1010.2
20260507024034 18 300 3.2 11.3 0.00 0.64 0.64 84 1010.2
20260507023533 18 285 3.2 11.3 0.00 0.64 0.64 85 1010.1
20260507023034 18 338 4.8 8.0 0.00 0.64 0.64 85 1009.9
20260507022533 18 298 1.6 4.8 0.00 0.64 0.64 86 1009.9
20260507022033 18 325 1.6 4.8 0.00 0.64 0.64 86 1009.8
20260507021033 18 300 0.0 3.2 0.00 0.64 0.64 87 1009.4
20260507020534 18 299 1.6 4.8 0.00 0.64 0.64 88 1009.6
20260507015533 18 249 0.0 4.8 0.00 0.64 0.64 90 1009.7
20260507015033 18 229 1.6 3.2 0.00 0.64 0.64 90 1009.7
20260507014533 18 107 0.0 3.2 0.00 0.64 0.64 90 1009.6
20260507014033 18 107 1.6 3.2 0.00 0.64 0.64 91 1009.6
20260507013533 18 283 0.0 3.2 0.00 0.64 0.64 90 1009.5
20260507013034 18 15 1.6 3.2 0.00 0.64 0.64 90 1009.3
20260507012533 18 242 1.6 3.2 0.00 0.64 0.64 91 1009.7
20260507012034 18 240 0.0 1.6 0.00 0.64 0.64 91 1009.9
20260507011533 18 240 0.0 1.6 0.00 0.64 0.64 90 1010.0
20260507010533 18 240 0.0 1.6 0.00 0.64 0.64 90 1009.8
20260507005534 18 240 0.0 0.0 0.00 0.64 0.64 90 1009.8
20260507005033 18 240 0.0 0.0 0.00 0.64 0.64 90 1009.5
20260507004534 18 240 0.0 0.0 0.00 0.64 0.64 89 1009.6
20260507004033 18 240 0.0 1.6 0.00 0.64 0.64 89 1009.5
20260507003533 18 240 0.0 1.6 0.00 0.64 0.64 89 1009.3
20260507003033 18 317 0.0 0.0 0.00 0.64 0.64 89 1009.6
20260507002533 19 317 0.0 0.0 0.00 0.64 0.64 88 1009.3
20260507002033 19 317 0.0 0.0 0.00 0.64 0.64 88 1009.4
20260507001534 19 317 0.0 0.0 0.00 0.64 0.64 87 1009.3
20260507000033 20 126 0.0 1.6 0.00 0.64 0.64 86 1009.0
20260506235534 20 126 0.0 0.0 0.00 0.64 0.64 85 1009.1
20260506235033 20 126 0.0 1.6 0.00 0.64 0.64 85 1009.1
20260506234534 20 126 0.0 1.6 0.00 0.64 0.64 84 1009.1
20260506234033 20 0 0.0 1.6 0.00 0.64 0.64 84 1008.9
20260506233033 20 310 0.0 4.8 0.00 0.64 0.64 84 1008.6
20260506232533 20 174 0.0 4.8 0.00 0.64 0.64 84 1008.6
20260506232033 20 176 1.6 4.8 0.00 0.64 0.64 83 1008.5
20260506231034 20 203 1.6 3.2 0.00 0.64 0.64 83 1008.5
20260506230533 20 190 0.0 4.8 0.00 0.64 0.64 84 1008.4
20260506230034 20 190 0.0 12.9 0.00 0.64 0.64 84 1008.6
20260506225533 20 181 1.6 12.9 0.00 0.64 0.64 83 1008.5
20260506224034 20 155 3.2 4.8 0.00 0.64 0.64 82 1008.4
20260506223533 20 233 1.6 12.9 0.00 0.64 0.64 82 1008.3
20260506222533 20 186 3.2 16.1 0.00 0.64 0.64 82 1008.4
20260506222033 20 214 9.7 16.1 0.00 0.64 0.64 82 1008.3
20260506221534 20 205 4.8 14.5 0.00 0.64 0.64 83 1008.3
20260506221034 20 195 3.2 12.9 0.00 0.64 0.64 82 1008.3
20260506220533 20 279 4.8 12.9 0.00 0.64 0.64 82 1008.4
20260506220033 20 213 1.6 9.7 0.00 0.64 0.64 82 1008.4
20260506215534 20 278 1.6 11.3 0.00 0.64 0.64 82 1008.4
20260506215033 20 215 3.2 11.3 0.00 0.64 0.64 82 1008.4
20260506214033 20 239 3.2 11.3 0.00 0.64 0.64 82 1008.4
20260506213034 20 222 3.2 14.5 0.00 0.64 0.64 82 1008.4
20260506212534 20 193 3.2 19.3 0.00 0.64 0.64 82 1008.4
20260506212034 20 305 4.8 19.3 0.00 0.64 0.64 82 1008.4
20260506211533 20 198 9.7 19.3 0.00 0.64 0.64 82 1008.4
20260506211034 20 191 4.8 19.3 0.00 0.64 0.64 82 1008.4
20260506210534 20 182 4.8 19.3 0.00 0.64 0.64 82 1008.2
20260506210034 20 219 8.0 19.3 0.00 0.64 0.64 82 1008.2
20260506205533 20 209 9.7 19.3 0.00 0.64 0.64 81 1008.1
20260506205033 20 197 9.7 16.1 0.00 0.64 0.64 81 1008.1
20260506204033 20 171 4.8 9.7 0.00 0.64 0.64 80 1008.0
20260506203533 20 234 3.2 16.1 0.00 0.64 0.64 82 1008.0
20260506203033 20 201 3.2 16.1 0.00 0.64 0.64 81 1008.0
20260506202533 20 244 1.6 12.9 0.00 0.64 0.64 82 1008.0
20260506202033 20 184 3.2 19.3 0.00 0.64 0.64 83 1008.1
20260506201533 20 185 4.8 25.7 0.00 0.64 0.64 83 1008.1
20260506201033 20 198 11.3 25.7 0.00 0.64 0.64 82 1008.1
20260506200533 20 213 6.4 22.5 0.00 0.64 0.64 83 1008.2
20260506200034 20 227 11.3 22.5 0.00 0.64 0.64 83 1008.3
20260506195533 20 227 9.7 19.3 0.00 0.64 0.64 82 1008.3
20260506195033 20 213 8.0 24.1 0.00 0.64 0.64 83 1008.2
20260506194533 20 226 14.5 24.1 0.00 0.64 0.64 82 1008.3
20260506194033 20 222 9.7 24.1 0.00 0.64 0.64 82 1008.3
20260506193534 20 153 6.4 19.3 0.00 0.64 0.64 83 1008.1
20260506193033 20 279 6.4 19.3 0.00 0.64 0.64 83 1008.2
20260506192533 19 154 6.4 19.3 0.00 0.64 0.64 84 1008.3
20260506192034 19 251 4.8 19.3 0.00 0.64 0.64 84 1008.3
20260506191533 19 239 8.0 19.3 0.00 0.64 0.64 84 1008.3
20260506191033 19 161 8.0 24.1 0.00 0.64 0.64 84 1008.4
20260506190533 19 236 9.7 24.1 0.00 0.64 0.64 84 1008.7
20260506190033 18 223 8.0 14.5 0.00 0.64 0.64 84 1008.8
20260506185533 18 220 4.8 19.3 0.00 0.64 0.64 84 1008.9
20260506184533 18 179 1.6 19.3 0.00 0.64 0.64 85 1009.0
20260506184033 18 208 3.2 19.3 0.00 0.64 0.64 85 1009.0
20260506183534 18 224 6.4 19.3 0.00 0.64 0.64 84 1009.1
20260506183034 18 220 8.0 19.3 0.00 0.64 0.64 84 1009.0
20260506182033 18 226 3.2 19.3 0.00 0.64 0.64 85 1009.0
20260506181533 18 224 11.3 19.3 0.00 0.64 0.64 85 1009.1
20260506181033 18 203 9.7 19.3 0.00 0.64 0.64 85 1009.1
20260506180034 18 199 3.2 19.3 0.00 0.64 0.64 85 1009.1
20260506175533 18 179 8.0 19.3 0.00 0.64 0.64 85 1009.1
20260506175033 18 207 6.4 19.3 0.00 0.64 0.64 85 1009.2
20260506174533 18 174 3.2 20.9 0.00 0.64 0.64 87 1009.2
20260506174034 18 208 6.4 20.9 0.00 0.64 0.64 87 1009.3
20260506173533 17 283 4.8 19.3 0.00 0.64 0.64 87 1009.3
20260506173033 17 184 8.0 19.3 0.00 0.64 0.64 88 1009.3
20260506172533 17 238 8.0 22.5 0.00 0.64 0.64 88 1009.3
20260506172034 17 200 9.7 24.1 0.00 0.64 0.64 88 1009.3
20260506171533 17 230 8.0 24.1 0.00 0.64 0.64 88 1009.4
20260506171033 17 238 9.7 22.5 0.00 0.64 0.64 88 1009.3
20260506170533 17 200 8.0 19.3 0.00 0.64 0.64 88 1009.4
20260506170033 17 246 6.4 27.4 0.00 0.64 0.64 89 1009.6
20260506165532 17 235 9.7 27.4 0.00 0.64 0.64 88 1009.6
20260506165033 17 225 4.8 25.7 0.00 0.64 0.64 90 1009.7
20260506164533 17 136 8.0 25.7 0.00 0.64 0.64 90 1009.6
20260506164033 17 219 3.2 20.9 0.00 0.64 0.64 91 1009.5
20260506163033 17 245 8.0 25.7 0.00 0.64 0.64 91 1009.6
20260506162533 16 189 4.8 25.7 0.00 0.64 0.64 92 1009.7
20260506161533 16 224 8.0 20.9 0.00 0.64 0.64 94 1009.9
20260506161032 16 244 9.7 20.9 0.00 0.64 0.64 94 1009.7
20260506160033 16 220 9.7 27.4 0.05 0.64 0.64 94 1009.7
20260506155532 16 215 9.7 27.4 0.08 0.64 0.64 94 1009.7
20260506155033 16 228 11.3 20.9 0.10 0.64 0.64 94 1009.9
20260506154533 16 241 9.7 19.3 0.13 0.64 0.64 95 1010.0
20260506154033 16 198 3.2 14.5 0.13 0.64 0.64 95 1009.9
20260506153533 16 201 4.8 19.3 0.13 0.64 0.64 95 1010.0
20260506153033 16 159 8.0 19.3 0.15 0.64 0.64 95 1010.2
20260506152033 16 195 9.7 20.9 0.15 0.64 0.64 95 1010.0